This is the latest recevied weather packets stored in our database for station/object WR7DW-3. If no packets are shown the sender has not sent any weather packets the latest 10 day(s).
| Time | Temp. | Humidity | Pressure | Rain* | Wind** | Luminosity | Snow |
|---|---|---|---|---|---|---|---|
| 1777620591 | 5° C | 56% | 1013.3 hPa | 0 mm | - | - | - |
| 1777619691 | 5° C | 56% | 1013.4 hPa | 0 mm | - | - | - |
| 1777618791 | 5° C | 56% | 1013.3 hPa | 0 mm | - | - | - |
| 1777617891 | 5° C | 56% | 1013.2 hPa | 0 mm | - | - | - |
| 1777616991 | 5° C | 56% | 1013.3 hPa | 0 mm | - | - | - |
| 1777616091 | 5° C | 58% | 1013.2 hPa | 0 mm | - | - | - |
| 1777615191 | 5° C | 59% | 1013.4 hPa | 0 mm | - | - | - |
| 1777614291 | 5° C | 59% | 1013.3 hPa | 0 mm | - | - | - |
| 1777613391 | 5° C | 59% | 1013.3 hPa | 0 mm | - | - | - |
| 1777612491 | 5.56° C | 59% | 1013.4 hPa | 0 mm | - | - | - |
| 1777611591 | 5.56° C | 58% | 1013.5 hPa | 0 mm | - | - | - |
| 1777610691 | 5.56° C | 59% | 1013.6 hPa | 0 mm | - | - | - |
| 1777609791 | 5.56° C | 58% | 1013.6 hPa | 0 mm | - | - | - |
| 1777608891 | 5.56° C | 56% | 1013.8 hPa | 0 mm | - | - | - |
| 1777607992 | 5.56° C | 55% | 1013.8 hPa | 0 mm | - | - | - |
| 1777607092 | 5.56° C | 56% | 1013.9 hPa | 0 mm | - | - | - |
| 1777606191 | 5.56° C | 58% | 1013.8 hPa | 0 mm | - | - | - |
| 1777605291 | 6.11° C | 56% | 1013.8 hPa | 0 mm | - | - | - |
| 1777604391 | 6.11° C | 57% | 1013.6 hPa | 0 mm | - | - | - |
| 1777603491 | 6.67° C | 56% | 1013.7 hPa | 0 mm | - | - | - |
| 1777602591 | 6.67° C | 55% | 1013.8 hPa | 0 mm | - | - | - |
| 1777601691 | 6.67° C | 58% | 1013.8 hPa | 0 mm | - | - | - |
| 1777600791 | 6.67° C | 58% | 1013.7 hPa | 0 mm | - | - | - |
| 1777599891 | 6.67° C | 57% | 1013.7 hPa | 0 mm | - | - | - |
| 1777598991 | 7.22° C | 56% | 1013.7 hPa | 0 mm | - | - | - |
* Rain latest hour (hover to see other rain measurements)
** Current wind speed in m/s (hover to see current wind gust speed)